Find Starlink 37150

NORAD ID: 68315 Int'l Des: 2026-057 Owner: SPXS Country: US Constellation: starlink operational
LEOCIRCULARRETROGRADE

当前视图

正在加载3D地球...

About Starlink 37150

Starlink 37150 (NORAD 68315) is a starlink constellation satellite (v2 mini) launched Mar 20, 2026 by SPXS of US. It operates in LEO, CIRCULAR, RETROGRADE orbit with a mass of 575.00 kg.

关于 Starlink 37150

正在加载描述...

即将过境

Passes for default location (London). Set your location on the main map for personalized predictions.

高度历史

Loading altitude history...

两行轨道根数

1 68315U 26057X 26170.91668981 -.00009880 00000-0 -27181-3 0 9996
2 68315 97.2856 297.6695 0001573 82.9211 70.2177 15.36967676 5954
Epoch: Jun 19, 2026 • Age: 7 hours

当前状态

高度 480.2 km
速度 7.62 km/s
星下点 -62.75°S, 125.6°E
发射日期 Mar 20, 2026
运行时间 0.2 years
类型 internet

技术详情

分类 Payload
质量 575.00 kg
干质量 530.00 kg
总质量 575.00 kg
长度 0.30 m
直径 4.10 m
跨度 29.00 m
形状 Box + pan
制造商 SPXS
平台类型 Starlink V2MO
阶段状态 In Orbit
所有者/国家 SPXS/US

Most Searched